Location: Cheyres
(46.8153°N, 6.7877°E)
Time: 04:57:49
(UTC+00:00)

SEEDS - Pass Details

Date: 10 July 2022
Orbit: 579 x 598 km, 97.6° (Epoch: 09 August)

Event Time Altitude Azimuth Distance (km) Brightness Sun altitude
Rises 02:54:18 0° 26° (NNE) 2,810 ? -8.0°
Reaches altitude 10° 02:56:55 10° 43° (NE) 1,904 ? -7.7°
Maximum altitude 03:00:04 21° 93° (E) 1,328 ? -7.3°
Drops below altitude 10° 03:03:12 10° 143° (SE) 1,894 ? -6.9°
Sets 03:05:47 0° 159° (SSE) 2,789 ? -6.6°
